• In India
  • List of Countries
  • For 7 days
  • Water Temperature
  • Satellite Maps
  • Weather Map
  • Weather Widgets
  • user-avatar
    Login

    Hourly Weather Cumbitara

    Today, 15 August, Wednesday

    Time Temperature Precipitation Wind Pressure Humidity
    00:00 +15°C° 0.1 mm 1 mps 614 mmHg 87%
    01:00 +15°C° 0.1 mm 1 mps 614 mmHg 87%
    02:00 +15°C° 0 mm 1 mps 613 mmHg 86%
    03:00 +15°C° 0 mm 1 mps 613 mmHg 86%
    04:00 +15°C° 0 mm 1 mps 613 mmHg 86%
    05:00 +15°C° 0 mm 1 mps 613 mmHg 85%
    06:00 +15°C° 0 mm 1 mps 613 mmHg 84%
    07:00 +15°C° 0 mm 1 mps 614 mmHg 83%
    08:00 +18°C° 0 mm 1 mps 615 mmHg 77%
    09:00 +20°C° 0 mm 1 mps 615 mmHg 70%
    10:00 +21°C° 0 mm 2 mps 616 mmHg 64%
    11:00 +21°C° 0.1 mm 2 mps 616 mmHg 63%
    12:00 +23°C° 0.1 mm 2 mps 616 mmHg 61%
    13:00 +22°C° 0.1 mm 3 mps 615 mmHg 60%
    14:00 +21°C° 0.2 mm 3 mps 615 mmHg 64%
    15:00 +20°C° 0.2 mm 3 mps 614 mmHg 69%
    16:00 +19°C° 0.2 mm 3 mps 613 mmHg 73%
    17:00 +18°C° 0.1 mm 2 mps 613 mmHg 77%
    18:00 +17°C° 0.1 mm 2 mps 613 mmHg 82%
    19:00 +16°C° 0.1 mm 1 mps 613 mmHg 86%
    20:00 +16°C° 0.2 mm 1 mps 614 mmHg 85%
    21:00 +15°C° 0.2 mm 1 mps 614 mmHg 83%
    22:00 +15°C° 0.2 mm 1 mps 615 mmHg 82%
    23:00 +15°C° 0 mm 1 mps 614 mmHg 82%

    Tomorrow, 16 August, Thursday

    Time Temperature Precipitation Wind Pressure Humidity
    00:00 +15°C° 0 mm 1 mps 614 mmHg 82%
    01:00 +15°C° 0 mm 1 mps 614 mmHg 82%
    02:00 +15°C° 0 mm 1 mps 614 mmHg 82%
    03:00 +14°C° 0 mm 1 mps 613 mmHg 83%
    04:00 +14°C° 0 mm 1 mps 613 mmHg 83%
    05:00 +15°C° 0 mm 1 mps 613 mmHg 82%
    06:00 +15°C° 0 mm 1 mps 614 mmHg 81%
    07:00 +15°C° 0 mm 1 mps 614 mmHg 79%
    08:00 +18°C° 0 mm 1 mps 615 mmHg 73%
    09:00 +19°C° 0 mm 2 mps 616 mmHg 67%
    10:00 +21°C° 0 mm 2 mps 617 mmHg 61%
    11:00 +21°C° 0.2 mm 2 mps 617 mmHg 61%
    12:00 +21°C° 0.2 mm 2 mps 617 mmHg 62%
    13:00 +23°C° 0.2 mm 2 mps 616 mmHg 62%
    14:00 +21°C° 0.6 mm 2 mps 616 mmHg 65%
    15:00 +21°C° 0.6 mm 2 mps 615 mmHg 68%
    16:00 +20°C° 0.6 mm 2 mps 614 mmHg 71%
    17:00 +19°C° 0.3 mm 2 mps 614 mmHg 76%
    18:00 +18°C° 0.3 mm 2 mps 614 mmHg 81%
    19:00 +16°C° 0.3 mm 1 mps 614 mmHg 86%
    20:00 +16°C° 0.2 mm 1 mps 615 mmHg 85%
    21:00 +16°C° 0.2 mm 1 mps 615 mmHg 84%
    22:00 +16°C° 0.2 mm 1 mps 616 mmHg 83%
    23:00 +15°C° 0.1 mm 1 mps 616 mmHg 83%

    Day after tomorrow, 17 August, Friday

    Time Temperature Precipitation Wind Pressure Humidity
    00:00 +15°C° 0.1 mm 1 mps 615 mmHg 83%
    01:00 +15°C° 0.1 mm 1 mps 615 mmHg 83%
    02:00 +15°C° 0 mm 1 mps 615 mmHg 82%
    03:00 +15°C° 0 mm 1 mps 614 mmHg 82%
    04:00 +15°C° 0 mm 1 mps 614 mmHg 82%
    05:00 +15°C° 0.1 mm 1 mps 614 mmHg 81%
    06:00 +15°C° 0.1 mm 1 mps 615 mmHg 81%
    07:00 +16°C° 0.1 mm 1 mps 615 mmHg 80%
    08:00 +18°C° 0 mm 1 mps 616 mmHg 74%
    09:00 +20°C° 0 mm 1 mps 617 mmHg 68%
    10:00 +21°C° 0 mm 2 mps 617 mmHg 62%
    11:00 +23°C° 0.1 mm 2 mps 617 mmHg 60%
    12:00 +23°C° 0.1 mm 2 mps 617 mmHg 58%
    13:00 +24°C° 0.1 mm 2 mps 617 mmHg 56%
    14:00 +23°C° 0.3 mm 2 mps 616 mmHg 60%
    15:00 +21°C° 0.3 mm 3 mps 615 mmHg 64%
    16:00 +20°C° 0.3 mm 3 mps 614 mmHg 68%
    17:00 +19°C° 0.1 mm 2 mps 614 mmHg 74%
    18:00 +18°C° 0.1 mm 2 mps 614 mmHg 79%
    19:00 +16°C° 0.1 mm 1 mps 614 mmHg 85%
    20:00 +16°C° 0.2 mm 1 mps 615 mmHg 83%
    21:00 +16°C° 0.2 mm 1 mps 615 mmHg 82%
    22:00 +15°C° 0.2 mm 1 mps 616 mmHg 81%
    23:00 +15°C° 0.1 mm 1 mps 615 mmHg 81%

    18 August, Saturday

    Time Temperature Precipitation Wind Pressure Humidity
    00:00 +15°C° 0.1 mm 1 mps 615 mmHg 82%
    01:00 +15°C° 0.1 mm 1 mps 615 mmHg 82%
    02:00 +15°C° 0.1 mm 1 mps 614 mmHg 83%
    03:00 +15°C° 0.1 mm 1 mps 614 mmHg 83%
    04:00 +14°C° 0.1 mm 1 mps 614 mmHg 84%
    05:00 +15°C° 0 mm 1 mps 614 mmHg 83%
    06:00 +15°C° 0 mm 1 mps 614 mmHg 82%
    07:00 +15°C° 0 mm 1 mps 615 mmHg 80%
    08:00 +18°C° 0 mm 1 mps 615 mmHg 74%
    09:00 +19°C° 0 mm 2 mps 616 mmHg 68%
    10:00 +21°C° 0 mm 2 mps 617 mmHg 62%
    11:00 +21°C° 0.1 mm 2 mps 616 mmHg 62%
    12:00 +21°C° 0.1 mm 3 mps 616 mmHg 62%
    13:00 +22°C° 0.1 mm 3 mps 616 mmHg 62%
    14:00 +21°C° 0.1 mm 3 mps 615 mmHg 65%
    15:00 +20°C° 0.1 mm 3 mps 614 mmHg 69%
    16:00 +20°C° 0.1 mm 3 mps 613 mmHg 72%
    17:00 +18°C° 0.2 mm 2 mps 613 mmHg 77%
    18:00 +17°C° 0.2 mm 2 mps 613 mmHg 82%
    19:00 +16°C° 0.2 mm 1 mps 614 mmHg 87%
    20:00 +16°C° 0.4 mm 1 mps 614 mmHg 86%
    21:00 +15°C° 0.4 mm 1 mps 614 mmHg 85%
    22:00 +15°C° 0.4 mm 1 mps 615 mmHg 83%
    23:00 +15°C° 0.1 mm 1 mps 614 mmHg 83%

    19 August, Sunday

    Time Temperature Precipitation Wind Pressure Humidity
    00:00 +15°C° 0.1 mm 1 mps 614 mmHg 83%
    01:00 +15°C° 0.1 mm 1 mps 614 mmHg 82%
    02:00 +15°C° 0 mm 1 mps 613 mmHg 82%
    03:00 +14°C° 0 mm 1 mps 613 mmHg 82%
    04:00 +14°C° 0 mm 1 mps 613 mmHg 82%
    05:00 +15°C° 0 mm 1 mps 613 mmHg 81%
    06:00 +15°C° 0 mm 1 mps 614 mmHg 80%
    07:00 +15°C° 0 mm 1 mps 614 mmHg 79%
    08:00 +18°C° 0.1 mm 1 mps 615 mmHg 74%
    09:00 +20°C° 0.1 mm 1 mps 616 mmHg 69%
    10:00 +20°C° 0.1 mm 2 mps 616 mmHg 64%
    11:00 +21°C° 0.2 mm 2 mps 616 mmHg 62%
    12:00 +23°C° 0.2 mm 2 mps 616 mmHg 61%
    13:00 +23°C° 0.2 mm 2 mps 615 mmHg 59%
    14:00 +23°C° 0.5 mm 2 mps 615 mmHg 63%
    15:00 +21°C° 0.5 mm 2 mps 614 mmHg 66%
    16:00 +20°C° 0.5 mm 3 mps 614 mmHg 70%
    17:00 +19°C° 0.2 mm 2 mps 614 mmHg 75%
    18:00 +17°C° 0.2 mm 2 mps 614 mmHg 81%
    19:00 +16°C° 0.2 mm 1 mps 614 mmHg 87%
    20:00 +16°C° 0.1 mm 1 mps 614 mmHg 86%
    21:00 +16°C° 0.1 mm 1 mps 614 mmHg 85%
    22:00 +15°C° 0.1 mm 1 mps 615 mmHg 84%
    23:00 +15°C° 0.1 mm 1 mps 614 mmHg 84%

    20 August, Monday

    Time Temperature Precipitation Wind Pressure Humidity
    00:00 +15°C° 0.1 mm 1 mps 614 mmHg 84%
    01:00 +15°C° 0.1 mm 1 mps 614 mmHg 84%
    02:00 +15°C° 0 mm 1 mps 613 mmHg 85%
    03:00 +15°C° 0 mm 1 mps 613 mmHg 85%
    04:00 +15°C° 0 mm 1 mps 613 mmHg 86%
    05:00 +15°C° 0 mm 1 mps 613 mmHg 85%
    06:00 +15°C° 0 mm 1 mps 614 mmHg 84%
    07:00 +16°C° 0 mm 1 mps 614 mmHg 84%
    08:00 +18°C° 0 mm 1 mps 615 mmHg 77%
    09:00 +20°C° 0 mm 1 mps 616 mmHg 71%
    10:00 +21°C° 0 mm 2 mps 617 mmHg 65%
    11:00 +21°C° 0.2 mm 2 mps 617 mmHg 63%
    12:00 +21°C° 0.2 mm 2 mps 616 mmHg 62%
    13:00 +23°C° 0.2 mm 2 mps 616 mmHg 61%
    14:00 +21°C° 0.3 mm 2 mps 615 mmHg 64%
    15:00 +21°C° 0.3 mm 2 mps 615 mmHg 67%
    16:00 +20°C° 0.3 mm 2 mps 614 mmHg 69%
    17:00 +19°C° 0.2 mm 2 mps 614 mmHg 75%
    18:00 +18°C° 0.2 mm 2 mps 614 mmHg 80%
    19:00 +18°C° 0.2 mm 1 mps 614 mmHg 85%
    20:00 +16°C° 0.2 mm 1 mps 615 mmHg 85%
    21:00 +16°C° 0.2 mm 1 mps 615 mmHg 85%
    22:00 +16°C° 0.2 mm 1 mps 615 mmHg 84%
    23:00 +16°C° 0.4 mm 1 mps 615 mmHg 85%
    Show more